Regional Weather Roundup
Issued by NWS

Home | Current Version | Previous Version | Text Only | Print | Product List | Glossary On
Versions: 1 2 3 4 5 6 7 8 9 10 11 12 13 14 15 16 17 18 19 20 21 22 23 24 25 26 27 28 29 30 31 32 33 34 35 36 37 38 39 40 41 42 43 44 45 46 47 48 49 50
000
ASUS44 KLIX 301713
RWRLA
LOUISIANA WEATHER ROUNDUP
NATIONAL WEATHER SERVICE NEW ORLEANS LA
1200 PM CDT THU MAR 30 2017

NOTE: "FAIR" INDICATES FEW OR NO CLOUDS BELOW 12,000 FEET WITH NO
      SIGNIFICANT WEATHER AND/OR OBSTRUCTIONS TO VISIBILITY.
      SKY/WX - SKY CONDITION AND SIGNIFICANT WEATHER.
      TMP - AIR TEMPERATURE.    DP   - DEWPOINT TEMPERATURE.
      RH  - RELATIVE HUMIDITY.  PRES - PRESSURE.
      HX  - HEAT INDEX.         WCI  - WIND CHILL INDEX.

*  THESE STATIONS ARE NOT NWS OR FAA STATIONS AND ARE NOT UNDER
   NWS QUALITY CONTROL.

LAZ040-048-061>063-065-066-069-301800-
SOUTHEAST LOUISIANA

CITY           SKY/WX    TMP DP  RH WIND       PRES   REMARKS
N.O. INTL ARPT TSTM      63  61  93 SE5       29.94F FOG
N.O. LAKEFRONT TSTM      65  62  90 S6        29.95F FOG
N.O. DOWNTOWN* NOT AVBL
RESERVE*       LGT RAIN  64  62  93 E10G20    29.86F
SLIDELL        RAIN      62  61  96 SE5       29.94F FOG
BATON ROUGE    PTSUNNY   66  59  78 CALM      29.85R THUNDER
BOOTHVILLE     RAIN      65  60  84 N24G33    29.90F
BELLE CHASSE   TSTM      67  63  87 NE3       29.95F FOG
BOGALUSA*      NOT AVBL
GALLIANO*      LGT RAIN  62  58  86 NE7       29.94R
NEW ROADS*     NOT AVBL
GONZALES*      PTSUNNY   63  59  87 CALM      29.84R
HAMMOND*       RAIN      63  61  94 SE7       29.92F
HOUMA*         LGT RAIN  63  61  94 NE12      29.87F
PORT FOURCHON* MOSUNNY   63  59  88 N15G21    29.95R FOG

$$

LAZ041-044-053-054-301800-
SOUTHWEST LOUISIANA

CITY           SKY/WX    TMP DP  RH WIND       PRES   REMARKS
LAKE CHARLES   SUNNY     72  59  63 NW8       29.83F
LAFAYETTE      CLOUDY    71  64  78 S3        29.83F
PATTERSON      LGT RAIN  63  61  93 S10       29.88R
SALT POINT       N/A     64  60  87 SE10      29.86R
NEW IBERIA     CLOUDY    67  61  81 S5        29.84F
CHENAULT AIRPK MOSUNNY   72  59  64 NW8       29.84F

$$

LAZ027-028-301800-
CENTRAL LOUISIANA

CITY           SKY/WX    TMP DP  RH WIND       PRES   REMARKS
FORT POLK      MOSUNNY   70  52  52 NW8       29.84F
ALEXANDRIA INT MOSUNNY   69  53  56 NW14      29.81F
ALEXANDRIA     PTSUNNY   70  58  65 W10       29.82F

$$

LAZ001-002-301800-
NORTHWEST LOUISIANA

CITY           SKY/WX    TMP DP  RH WIND       PRES   REMARKS
SHREVEPORT     PTSUNNY   64  45  49 W9        29.83F
BARKSDALE AFB  NOT AVBL
DTN SHREVEPORT PTSUNNY   64  46  52 SW12G22   29.84F

$$

LAZ014-016-301800-
NORTHEAST LOUISIANA

CITY           SKY/WX    TMP DP  RH WIND       PRES   REMARKS
MONROE         CLOUDY    68  51  54 W13       29.79F
TALLULAH       NOT AVBL

$$




USA.gov is the U.S. government's official web portal to all federal, state and local government web resources and services.